weather.gov     
National Weather Service

Terminal Aerodrome Forecast
NWS Homepage
This page is being discontinued on March 12, 2014.
The same data is available at this site. Please update your bookmarks.
Thank you, and we apologize for the inconvenience.
Please send an email to SR-SRH.Webmaster@noaa.gov with any concerns.


Current Version
Previous Version:    01  02  03  04  05  06  07  08  09  10  11  12  13  14  15  16  17  18  19  20  21  22  23  24  25  26  27  28  29  30  
   31  32  33  34  35  36  37  38  39  40  41  42  43  44  
[Printable]
700
FTUS41 KBGM 021100
TAFBGM
TAF
KBGM 021129Z 0212/0312 22010KT P6SM BKN050
      TEMPO 0212/0214 3SM BR OVC015
     FM022100 24010KT P6SM BKN040
      TEMPO 0221/0223 3SM TSRA BR OVC025CB
     FM022300 31008KT P6SM SCT015 BKN060
     FM030100 27005KT P6SM BKN015
     FM030600 27005KT P6SM FEW015 BKN040=


U.S. Dept. of Commerce
NOAA National Weather Service
1325 East West Highway
Silver Spring, MD 20910
E-mail: w-nws.webmaster@noaa.gov
Page last modified: May 16, 2007
NATIONAL WEATHER SERVICE: for Safety, for Work, for Fun - FOR LIFE